Wind_Speed
35 34 36 37 36 35 34 33 34 35 37 31 41 50 49 46 35 27 29 29 27 23 22 20 19 20 19 16 14 12 12 10 13 13 13 16 17 19 19 17 14 13 13
40 42 45 47 46 46 46 43 42 41 39 38 34 37 43 41 45 55 38 35 32 29 25 24 19 22 20 18 16 15 15 13 14 15 13 15 19 20 20 18 16 14 13
45 47 48 45 44 40 40 40 42 48 47 43 41 36 36 53 49 38 57 31 35 33 33 31 26 25 23 24 21 20 18 17 17 19 19 17 19 21 20 18 16 15 14
38 38 38 39 39 40 39 40 40 40 45 46 45 41 37 41 47 50 48 43 42 36 44 41 35 30 30 33 31 28 25 24 17 17 19 19 19 21 19 16 16 16 15
38 39 39 39 40 39 41 42 42 42 42 44 47 43 39 41 44 47 46 48 37 37 47 51 39 40 39 39 37 34 23 36 25 18 15 22 19 19 14 18 18 17 16
39 38 38 38 39 40 40 40 42 44 45 45 44 47 41 40 43 41 43 45 45 38 44 37 47 47 45 42 40 42 40 25 38 28 21 11 22 23 23 20 20 20 16
38 37 36 36 37 40 42 43 43 44 45 46 46 44 48 45 41 41 41 44 51 49 49 34 32 34 35 41 42 36 25 24 30 29 32 18 22 25 28 26 22 19 17
39 39 38 34 33 40 43 45 46 47 48 48 48 47 45 47 47 41 38 43 46 45 49 51 51 46 41 43 42 36 29 33 36 31 35 29 24 26 28 29 26 20 17
38 40 41 42 44 47 46 48 48 50 50 49 49 50 51 50 48 46 42 39 41 45 43 43 47 42 50 48 47 42 37 36 34 29 30 41 33 31 29 28 25 23 18
40 40 40 40 40 42 42 45 47 48 51 50 48 47 46 49 49 51 50 45 42 40 41 45 46 46 40 32 40 40 38 29 28 32 34 38 44 41 32 26 24 21 19
40 40 40 39 39 40 41 41 41 44 48 51 51 48 44 42 46 46 46 47 45 42 41 40 38 40 38 42 43 37 39 34 33 32 33 34 48 43 33 24 25 21 19
37 38 38 40 41 42 44 45 45 46 48 49 51 51 49 44 42 41 46 46 44 44 40 40 38 36 39 32 35 43 44 39 43 45 39 31 26 35 26 21 23 24 20
37 37 38 39 41 44 47 50 50 50 52 53 53 53 53 46 39 37 37 40 41 42 43 42 40 39 37 39 32 31 40 46 48 46 47 42 38 32 22 26 29 27 19
38 39 40 42 42 43 44 44 44 43 44 45 47 48 47 43 37 38 38 34 33 40 41 41 40 38 38 38 37 33 42 48 48 46 47 43 41 36 30 31 26 24 22
39 39 39 39 39 38 37 37 37 37 38 40 39 40 39 38 36 39 41 38 31 29 34 36 40 39 37 37 38 40 39 45 51 49 46 41 46 40 35 34 27 24 22
38 38 37 36 35 35 35 33 33 34 33 33 33 35 34 37 38 41 42 45 40 33 28 31 35 38 37 35 36 39 36 39 45 51 48 50 50 42 41 36 33 29 22
35 34 34 34 35 34 33 33 32 29 29 29 29 30 32 32 37 41 42 47 49 48 40 32 34 38 33 33 38 37 32 38 38 54 47 47 37 50 42 39 32 25 17
32 31 32 31 31 31 31 30 30 30 27 25 27 28 30 31 33 42 41 43 46 47 50 43 35 33 35 34 36 40 35 32 41 48 44 53 40 43 45 39 33 29 22
30 32 30 29 28 27 28 28 28 26 25 24 23 25 25 26 29 36 43 48 48 47 51 54 49 43 36 38 38 33 35 39 32 33 39 47 37 34 36 41 30 32 24
28 29 28 28 27 26 25 26 25 24 22 21 21 22 23 25 26 31 39 44 46 46 49 49 47 44 36 38 39 33 34 40 45 44 42 37 42 44 43 41 34 27 27
29 29 29 26 26 28 28 26 25 23 22 20 18 18 21 25 25 26 32 38 43 45 46 46 48 44 39 36 31 26 28 30 35 38 43 40 42 44 39 42 31 34 25
27 28 28 27 26 28 28 28 27 26 24 21 19 17 17 21 23 24 27 32 37 41 45 45 43 43 43 40 33 33 30 26 28 28 33 36 38 48 41 44 40 31 30
25 25 26 27 27 28 29 31 31 30 27 25 23 22 21 21 19 19 23 25 30 34 38 43 42 41 42 41 41 38 42 29 24 30 30 33 33 26 33 29 30 32 34
27 26 26 27 29 30 32 35 32 32 31 29 26 24 24 23 22 18 17 21 23 28 33 36 39 40 40 40 41 43 42 44 41 30 33 31 25 29 33 32 29 31 34
27 28 27 26 28 33 36 42 40 39 33 30 27 24 24 25 24 21 22 18 19 21 26 30 34 36 39 40 41 44 45 41 45 45 41 35 31 28 32 37 36 35 36
26 28 29 26 30 37 43 45 42 33 26 22 20 19 20 23 24 23 25 21 23 21 22 26 29 32 35 37 40 44 46 45 47 47 44 45 43 40 37 36 36 37 38
Wind_Direction
280 281 281 279 275 273 273 272 271 273 280 291 262 258 268 267 212 224 233 248 249 246 237 226 221 221 228 230 233 244 259 262 258 276 293 297 307 316 316 317 315 308 307
286 286 287 285 283 280 279 274 268 272 276 280 282 271 261 257 251 259 234 242 250 245 239 233 223 218 222 231 234 243 256 266 279 292 302 309 307 313 318 317 318 312 306
290 288 286 285 283 281 280 275 271 268 271 272 274 273 266 261 268 277 230 233 250 252 246 237 228 219 221 229 229 230 241 261 273 284 293 304 309 310 311 311 314 313 309
287 286 285 285 286 284 282 279 275 269 267 267 269 266 263 265 259 258 272 272 241 238 240 239 233 223 223 228 229 232 236 239 235 268 280 291 303 313 305 305 307 311 316
291 289 288 288 287 286 286 284 280 277 271 266 265 265 259 256 263 259 261 258 264 263 248 227 223 230 228 230 231 233 261 248 248 255 286 293 296 306 303 319 309 303 314
288 288 287 287 286 284 282 282 282 281 278 272 269 269 267 259 258 257 254 248 243 256 255 234 273 232 231 233 233 235 254 258 252 254 254 272 285 292 303 310 309 298 302
285 287 287 285 284 284 283 282 281 280 280 280 276 271 270 270 268 264 253 253 254 250 254 264 267 247 231 237 228 231 268 288 287 251 252 240 256 276 291 303 302 294 293
285 284 283 284 278 275 275 276 275 274 273 273 275 275 272 269 271 270 269 255 254 260 254 250 255 251 245 244 253 274 255 266 280 280 244 250 244 266 282 294 300 293 289
291 283 277 274 274 275 275 274 275 277 279 278 274 271 271 271 270 271 271 267 263 259 257 257 250 249 249 253 255 260 258 269 263 272 255 248 252 261 267 281 287 290 280
287 289 289 289 284 280 278 272 271 273 277 279 277 274 268 267 270 269 268 269 265 263 264 257 252 253 250 237 243 249 251 250 252 260 263 253 245 258 256 269 279 281 268
289 288 288 287 285 283 280 277 275 273 271 274 277 277 275 271 263 263 266 268 268 267 261 261 257 252 257 257 255 246 253 258 249 254 255 256 252 233 239 260 276 268 257
296 294 291 288 286 284 282 281 278 276 273 271 273 275 273 270 267 264 257 260 265 261 260 258 256 249 247 248 245 255 259 249 250 254 249 241 236 224 230 250 253 252 249
299 297 294 292 290 288 285 283 280 276 273 272 270 269 268 268 265 261 253 249 255 260 259 255 252 253 244 244 248 242 239 246 247 245 246 239 230 232 227 239 248 246 237
302 300 298 296 294 291 288 287 285 282 277 272 270 268 264 258 253 251 244 247 249 249 251 249 246 248 250 239 234 240 238 233 236 236 232 233 220 221 221 233 240 229 227
305 305 304 302 301 299 294 290 286 285 282 276 271 267 261 251 239 236 234 233 238 248 253 244 242 244 245 241 230 229 238 241 223 231 227 225 216 214 222 230 210 209 227
312 311 309 307 306 304 301 298 291 286 283 275 270 265 259 255 241 230 233 228 234 225 244 246 237 236 239 239 231 234 232 230 226 226 227 218 213 210 210 222 218 224 224
319 316 313 313 313 309 304 303 300 289 283 276 270 268 266 258 242 233 228 229 234 228 232 239 233 232 231 239 235 235 232 230 220 216 222 205 215 216 209 217 215 222 225
337 328 317 315 313 314 311 310 308 302 289 277 272 268 263 260 246 234 230 229 232 233 225 237 241 237 234 233 232 234 230 227 210 209 217 214 192 200 195 210 214 219 218
338 342 338 331 322 319 321 318 314 310 299 287 273 268 266 258 252 235 231 233 227 233 231 234 239 241 239 235 236 235 225 224 233 229 218 225 208 202 209 203 217 223 217
341 341 345 350 348 340 328 324 321 318 315 302 286 272 264 256 251 243 234 234 235 233 232 232 237 241 244 237 239 237 217 220 223 225 220 224 228 221 223 225 207 222 233
340 342 338 330 338 344 342 339 331 323 315 310 304 282 266 260 254 246 240 236 236 236 236 235 237 239 240 241 232 232 230 219 222 224 226 219 217 203 223 210 197 207 232
347 349 352 347 337 337 340 339 336 329 320 304 291 287 280 272 263 256 248 240 235 236 235 236 233 233 234 232 232 228 221 209 233 224 222 221 233 227 207 198 195 193 222
338 342 344 347 346 341 335 330 325 323 320 309 294 275 273 275 271 260 252 248 238 233 233 235 233 229 227 226 227 224 215 207 229 238 227 223 223 225 221 216 205 214 210
339 334 334 341 345 347 346 338 330 322 311 304 295 278 267 259 263 261 250 244 240 234 229 228 230 231 229 223 219 224 223 218 209 227 238 225 228 217 205 220 207 211 209
337 340 334 333 339 340 340 341 333 321 308 298 293 277 263 255 248 248 247 234 236 236 233 229 228 226 226 224 218 219 221 217 219 210 215 204 209 209 217 215 212 216 208
343 342 340 331 332 334 336 336 336 335 332 319 299 284 265 255 244 241 238 244 241 240 236 230 227 225 224 222 218 217 220 215 217 220 220 216 218 215 215 210 206 205 205
Height
3120 3122 3121 3120 3121 3121 3121 3121 3121 3120 3116 3113 3109 3111 3109 3097 3094 3111 3122 3127 3132 3134 3134 3133 3136 3138 3139 3143 3145 3148 3151 3153 3152 3155 3157 3155 3154 3152 3151 3150 3148 3147 3145
3110 3112 3112 3110 3110 3109 3111 3111 3111 3111 3110 3106 3102 3102 3103 3106 3103 3114 3110 3120 3125 3126 3131 3133 3134 3136 3136 3139 3143 3144 3146 3149 3146 3150 3152 3153 3152 3150 3149 3147 3146 3144 3143
3102 3102 3102 3100 3099 3098 3098 3098 3099 3099 3100 3100 3098 3100 3101 3096 3091 3073 3068 3108 3120 3121 3125 3127 3127 3128 3132 3135 3137 3138 3140 3143 3144 3143 3147 3149 3148 3147 3146 3144 3143 3142 3141
3095 3093 3092 3091 3090 3089 3087 3086 3086 3087 3087 3088 3088 3090 3093 3087 3087 3090 3082 3097 3102 3101 3108 3119 3118 3119 3122 3126 3130 3131 3134 3136 3137 3137 3142 3144 3144 3143 3143 3141 3140 3139 3138
3085 3084 3083 3082 3080 3079 3077 3075 3074 3075 3075 3075 3075 3078 3083 3082 3078 3083 3086 3084 3085 3090 3073 3094 3099 3106 3109 3117 3123 3125 3128 3130 3133 3135 3137 3136 3138 3140 3140 3139 3137 3136 3135
3076 3076 3075 3073 3071 3069 3067 3066 3064 3063 3063 3063 3064 3063 3068 3072 3072 3074 3079 3082 3079 3081 3085 3081 3092 3097 3099 3105 3113 3118 3121 3123 3130 3131 3134 3134 3131 3134 3135 3137 3135 3134 3133
3068 3067 3066 3064 3062 3059 3056 3055 3055 3054 3053 3052 3053 3054 3052 3057 3060 3063 3071 3072 3071 3078 3078 3076 3071 3067 3084 3093 3098 3102 3110 3115 3117 3124 3128 3129 3128 3128 3129 3131 3132 3130 3130
3060 3058 3057 3054 3051 3047 3046 3044 3043 3041 3040 3040 3041 3041 3042 3042 3043 3048 3052 3059 3060 3061 3066 3068 3068 3072 3079 3085 3088 3089 3100 3106 3112 3118 3121 3124 3124 3123 3124 3124 3126 3127 3126
3050 3046 3044 3041 3038 3036 3036 3034 3032 3030 3029 3029 3030 3030 3029 3030 3032 3032 3037 3041 3047 3051 3056 3058 3060 3062 3069 3077 3082 3086 3091 3095 3103 3107 3111 3115 3119 3120 3119 3122 3123 3122 3123
3037 3035 3033 3031 3028 3025 3023 3022 3021 3020 3016 3015 3015 3016 3018 3018 3019 3020 3022 3025 3029 3035 3041 3047 3052 3053 3057 3061 3068 3074 3079 3087 3095 3100 3103 3106 3108 3115 3115 3117 3118 3118 3118
3026 3023 3021 3018 3016 3013 3010 3009 3008 3007 3005 3003 3002 3003 3005 3006 3007 3010 3011 3011 3015 3021 3025 3030 3038 3045 3049 3051 3054 3060 3069 3080 3085 3089 3092 3097 3097 3102 3109 3111 3110 3113 3113
3015 3012 3008 3005 3002 3000 2996 2994 2993 2992 2991 2990 2988 2988 2990 2992 2995 2998 3000 3001 3004 3006 3011 3016 3022 3027 3034 3041 3045 3051 3057 3066 3072 3077 3080 3084 3089 3095 3100 3104 3107 3107 3109
3005 3001 2997 2994 2990 2987 2982 2979 2977 2977 2975 2974 2974 2974 2975 2980 2984 2986 2984 2989 2993 2995 2999 3004 3008 3014 3021 3025 3032 3038 3044 3049 3055 3060 3066 3074 3081 3090 3093 3097 3098 3102 3106
2994 2990 2986 2981 2977 2973 2968 2964 2960 2959 2958 2956 2955 2956 2959 2964 2971 2970 2972 2975 2980 2984 2989 2993 2997 3003 3008 3013 3020 3027 3031 3035 3042 3047 3056 3066 3074 3080 3083 3088 3095 3097 3100
2984 2979 2974 2969 2964 2959 2956 2952 2948 2946 2943 2941 2941 2941 2943 2947 2955 2956 2959 2965 2971 2976 2978 2981 2986 2992 2998 3003 3008 3016 3020 3023 3030 3036 3046 3054 3063 3069 3075 3082 3089 3090 3094
2975 2969 2964 2959 2954 2949 2944 2941 2938 2935 2933 2930 2929 2929 2933 2935 2942 2946 2951 2956 2962 2967 2970 2971 2976 2981 2988 2994 2998 3004 3009 3013 3017 3027 3036 3044 3050 3056 3065 3073 3081 3083 3087
2966 2960 2954 2949 2944 2939 2935 2930 2926 2925 2922 2920 2920 2920 2921 2925 2927 2933 2940 2945 2950 2956 2960 2962 2967 2972 2979 2984 2988 2993 3000 3004 3010 3016 3024 3035 3037 3038 3054 3063 3070 3075 3081
2961 2954 2948 2942 2937 2932 2927 2922 2917 2913 2911 2911 2910 2910 2911 2912 2915 2921 2928 2932 2936 2942 2949 2955 2959 2965 2971 2976 2980 2984 2991 2995 3000 3008 3018 3024 3031 3029 3040 3055 3061 3066 3074
2958 2950 2942 2936 2931 2926 2920 2916 2911 2907 2903 2902 2902 2902 2902 2904 2905 2909 2914 2917 2925 2931 2938 2944 2951 2956 2963 2968 2972 2977 2981 2989 2994 3000 3007 3011 3017 3022 3037 3043 3052 3058 3065
2955 2948 2941 2935 2928 2922 2917 2912 2907 2902 2898 2895 2894 2894 2894 2895 2896 2898 2903 2908 2914 2921 2927 2933 2940 2946 2953 2958 2963 2968 2975 2980 2987 2994 3001 3009 3015 3022 3028 3034 3042 3046 3054
2951 2945 2938 2933 2927 2921 2914 2909 2903 2899 2895 2892 2889 2888 2888 2887 2889 2891 2893 2898 2903 2910 2916 2923 2931 2937 2944 2948 2955 2960 2965 2972 2978 2984 2991 3000 3007 3011 3019 3024 3033 3038 3047
2947 2941 2934 2928 2923 2918 2911 2905 2900 2895 2891 2888 2885 2884 2882 2881 2882 2884 2886 2888 2893 2898 2904 2911 2919 2926 2933 2940 2947 2953 2959 2963 2970 2977 2985 2991 2996 3002 3009 3016 3025 3034 3039
2944 2938 2933 2926 2920 2914 2908 2902 2896 2890 2886 2881 2879 2877 2876 2875 2874 2875 2877 2880 2884 2889 2894 2900 2907 2914 2921 2930 2938 2944 2951 2959 2967 2971 2978 2982 2989 2993 3000 3008 3019 3029 3034
2941 2935 2929 2923 2917 2910 2903 2896 2890 2883 2877 2873 2870 2868 2867 2868 2868 2869 2870 2872 2875 2879 2884 2890 2896 2903 2911 2919 2927 2934 2943 2951 2959 2968 2971 2978 2985 2990 2996 3004 3012 3021 3029
2937 2931 2925 2919 2913 2906 2899 2890 2881 2872 2865 2861 2858 2857 2857 2858 2860 2863 2865 2867 2869 2872 2876 2881 2886 2893 2900 2908 2917 2924 2932 2944 2951 2958 2965 2973 2977 2982 2991 2998 3006 3014 3022
2934 2928 2922 2916 2909 2902 2892 2882 2872 2862 2855 2851 2848 2847 2847 2848 2851 2854 2857 2860 2863 2866 2870 2873 2878 2884 2890 2897 2906 2914 2922 2932 2940 2948 2958 2964 2970 2975 2982 2989 2999 3008 3013